Regional Weather Roundup
Issued by NWS

Home | Current Version | Previous Version | Text Only | Print | Product List | Glossary On
Versions: 1 2 3 4 5 6 7 8 9 10 11 12 13 14 15 16 17 18 19 20 21 22 23 24 25 26 27 28 29 30 31 32 33 34 35 36 37 38 39 40 41 42 43 44 45 46 47 48 49 50
000
ASUS43 KLSX 291407
RWRMO

WEATHER SUMMARY FOR MISSOURI
NATIONAL WEATHER SERVICE SPRINGFIELD MO
900 AM CDT SAT AUG 29 2015

NOTE: "FAIR" INDICATES FEW OR NO CLOUDS BELOW 12,000 FEET WITH NO
       SIGNIFICANT WEATHER AND/OR OBSTRUCTIONS TO VISIBILITY.
       CURRENT SKY AND/OR WEATHER CONDITIONS ARE NOT AVAILABLE FOR
       CHILLICOTHE AND FARMINGTON.

MOZ001>031-035>038-043-044-053-054-291500-
...NORTHERN AND WESTERN MISSOURI...

CITY           SKY/WX    TMP DP  RH WIND       PRES   REMARKS
KANSAS CTY INT CLOUDY    68  65  90 N7        30.00R
KANSAS C DTWN  CLOUDY    70  67  90 NW5       29.99R
LEE`S SUMMIT   CLOUDY    71  67  87 N6        30.00R
ST JOSEPH      CLOUDY    67  65  93 N8        30.00S
CHILLICOTHE      N/A     73  69  87 CALM      29.98S
KIRKSVILLE     CLOUDY    70  64  81 CALM      29.99S

$$
MOZ066>068-077>081-088>096-101>105-291500-
...SOUTHWEST MISSOURI...

CITY           SKY/WX    TMP DP  RH WIND       PRES   REMARKS
SPRINGFIELD    MOSUNNY   68  62  81 SE10      30.03R
JOPLIN         SUNNY     74  63  68 S10       30.00S

$$
MOZ032>034-039>042-045>050-055>058-069>072-291500-
...CENTRAL MISSOURI...

CITY           SKY/WX    TMP DP  RH WIND       PRES   REMARKS
COLUMBIA       PTSUNNY   70  63  78 S8        30.01R
JEFFERSON CITY PTSUNNY   73  63  70 SE5       30.01R
ROLLA          LGT RAIN  66  64  93 S10       30.02F
SEDALIA        CLOUDY    71  63  75 S8G23     30.01R
WHITEMAN AFB   CLOUDY    71  66  83 W8        29.98S
WARRENSBURG    CLOUDY    70  64  83 S6        29.99S
OSAGE BEACH    CLOUDY    72  61  68 S7        30.03R

$$
MOZ051-052-059>065-291500-
...EAST CENTRAL MISSOURI...

CITY           SKY/WX    TMP DP  RH WIND       PRES   REMARKS
ST LOUIS INTL  CLOUDY    75  64  68 S7        30.03S
SPIRIT OF STL  CLOUDY    72  66  81 CALM      30.01S
ST CHARLES     CLOUDY    72  67  84 SE5       30.01F

$$
MOZ072>076-082>087-097>100-106>115-291500-
...SOUTH CENTRAL AND SOUTHEAST MISSOURI...

CITY           SKY/WX    TMP DP  RH WIND       PRES   REMARKS
CAPE GIRARDEAU PTSUNNY   73  68  84 SE8       30.06S
FARMINGTON     CLOUDY    70  64  83 S6        30.08R
POPLAR BLUFF   CLOUDY    71  68  90 CALM      30.05S
WEST PLAINS    LGT RAIN  65  63  93 CALM      30.09F FOG

$$



USA.gov is the U.S. government's official web portal to all federal, state and local government web resources and services.